Current weather by "City, St" or "zip code"  
 

Current Conditions: Albany International Airport, NY

Partly Cloudy


69.0 F

Last Updated on Aug 9 2022, 11:51 pm EDT
Humidity: 76%
Wind Speed: NW 6.9 mph
Barometer 30.04 in
Dewpoint: 61.0 F
Visibility: 10.00 mi
Precip: --
Heat Index: NA
Wind Chill: NA
Current conditions at:

Albany International Airport, NY (KALB)

Lat: 42.74722 Lon: 73.79912

Local Radar Image active severe weather and emergency alerts image image weather storm and storm spotter reports image weather observation monitoring service image
Local
Radar
Active
Alerts
Storm Reports Obs
Monitoring

Sign-up For Email & Text Message Weather Alert Notification Services



Advertise Here

Observation History for Albany International Airport, NY


Time Wind
(mph)
Vis
(mi)
Weather Precip (in) Temperature (F) Relative
Humidity
Wind
Chill
(F)
Heat
Index
(F)
Pressure
Air Dwpt altimeter
(in)
sea level
(mb)
Rmks
11:51 pm EDT NW 6.9 10.00 Partly Cloudy -- 69.0 61.0 76% NA NA 30.04 1017.1
9:51 pm EDT N 6.9 10.00 Overcast -- 72.0 63.0 73% NA NA 30.04 1017.0
8:51 pm EDT N 9.2 10.00 A Few Clouds -- 73.0 63.0 71% NA NA 30.00 1015.8
7:51 pm EDT W 12.7 10.00 Partly Cloudy -- 77.0 61.0 58% NA NA 29.98 1015.0
6:51 pm EDT NW 15.0 10.00 Partly Cloudy -- 80.0 61.0 52% NA 81 29.96 1014.2
5:51 pm EDT W 12.7 10.00 Partly Cloudy -- 82.0 62.1 51% NA 83 29.94 1013.5
4:51 pm EDT W 18.4 G 23.0 10.00 Mostly Cloudy -- 84.0 64.0 51% NA 85 29.92 1013.1
3:51 pm EDT NW 17.3 G 21.9 10.00 Mostly Cloudy -- 84.0 66.0 55% NA 86 29.92 1013.1
2:51 pm EDT W 12.7 10.00 Mostly Cloudy -- 84.0 66.0 55% NA 86 29.93 1013.2
1:51 pm EDT NW 12.7 G 21.9 10.00 Mostly Cloudy -- 82.0 66.9 60% NA 84 29.92 1013.0
12:51 pm EDT W 10.4 10.00 Mostly Cloudy -- 77.0 66.9 71% NA NA 29.93 1013.3
11:51 am EDT W 12.7 10.00 Mostly Cloudy -- 77.0 69.1 77% NA NA 29.91 1012.8
10:51 am EDT W 13.8 2.50 Mostly Cloudy 00.07 76.0 71.1 85% NA NA 29.91 1012.6
9:51 am EDT N 0.0 10.00 Overcast -- 83.0 72.0 70% NA 88 29.87 1011.4
8:51 am EDT S 5.8 10.00 Mostly Cloudy -- 82.0 72.0 72% NA 87 29.86 1010.8
6:51 am EDT SE 5.8 10.00 Mostly Cloudy -- 78.0 71.1 79% NA NA 29.84 1010.3
5:51 am EDT S 10.4 10.00 Overcast -- 78.0 71.1 79% NA NA 29.83 1009.9
4:51 am EDT SE 9.2 10.00 Overcast -- 77.0 71.1 82% NA NA 29.83 1009.7
3:51 am EDT SE 9.2 10.00 Mostly Cloudy -- 78.0 72.0 82% NA NA 29.83 1009.8
2:51 am EDT SE 9.2 10.00 Partly Cloudy -- 77.0 72.0 85% NA NA 29.82 1009.7
1:51 am EDT SE 10.4 10.00 Overcast -- 78.0 72.0 82% NA NA 29.82 1009.7

Regional Weather Observation


Fulton County Airport, NY (KNY0)

Overcast
64.0 F

Albany International Airport, NY (KALB)

Partly Cloudy
69.0 F

Bennington Morse State Airport, VT (KDDH)

Overcast
66.0 F

Glens Falls, Floyd Bennett Memorial Airport, NY (KGFL)

Mostly Cloudy
64.0 F

North Adams Harriman-and-West Airport, MA (KAQW)

Fair
66.0 F

Pittsfield Municipal Airport, MA (KPSF)

Fair
64.0 F

Advertise Here


Advertise Here